Location: Home
(42.5358°N, 72.7383°W)
Time: 02:33:28
(UTC-05:00)

Vanguard 2 - Pass Details

Date: 02 December 2021
Orbit: 553 x 2936 km, 32.9° (Epoch: 19 January)

Event Time Altitude Azimuth Distance (km) Brightness Sun altitude
Rises 16:38:26 0° 261° (W) 3,618 12.7 -4.1°
Reaches altitude 10° 16:40:46 10° 254° (WSW) 2,908 12.3 -4.5°
Maximum altitude 16:47:29 40° 187° (S) 2,055 10.0 -5.6°
Drops below altitude 10° 16:58:11 10° 124° (SE) 4,618 11.2 -7.4°
Sets 17:02:57 0° 118° (ESE) 5,992 11.7 -8.2°
